HAIYANG 1

导读 | 豆包AI

HAIYANG 1(海洋一号)是中国于2002年5月15日成功发射的首颗海洋水色遥感卫星,作为中国海洋卫星系列的开篇之作,它开启了中国自主海洋遥感监测的新时代。该卫星搭载了水色扫描仪和海岸带成像仪,可获取全球海洋水色水温、海岸带环境等数据,为海洋资源开发、环境保护、灾害预警与科学研究提供关键支撑,填补了中国在海洋卫星遥感领域的空白,奠定了中国海洋遥感技术发展的基础。

Basic Information
目录编号:
27430
目录名称:
HAIYANG 1
国际标识:
2002-024A
轨道中心:
EARTH
卫星名称:
HAIYANG 1
卫星全名:
--
卫星状态:
在轨 (已飞行8749 天)
发射日期:
2002-05-15 UTC
国别 :
中国 (CN)
星等 :
--
Orbit Information
数据来源 国际轨道数据 AOE轨道数据
星历时间 2026-04-28T18:47:16+0800
11小时前
查看轨道信息
2026-04-27T05:00:00+0800
2天前
查看轨道信息
半长轴 7159.451km 7159.462km
偏心率 0.0007857 0.000765
轨道倾角 98.725° 98.725°
近地点辐角 218.729° 223.854°
升交点赤经 80.110° 78.523°
平近点角 141.333° 297.642°
近地点 775.688km 775.848km
远地点 786.94km 786.802km
周期 100.480分钟 100.480分钟
每日圈数 14.331223 14.33119
Detailed Information
使用方式:
暂无
2D Orbit Map
3D Orbit Map
Orbit Altitude Analysis Chart
Orbit Inclination Analysis Chart
Orbit Comprehensive Analysis Chart
View Comprehensive Chart